Location: Rounton
(54.4000°N, 1.3500°W)
Time: 16:52:11
(UTC+00:00)

Tiros 1 - Pass Details

Date: 07 December 2021
Orbit: 629 x 664 km, 48.4° (Epoch: 19 January)

Event Time Altitude Azimuth Distance (km) Brightness Sun altitude
Rises 20:02:44 0° 256° (WSW) 2,928 11.3 -36.4°
Reaches altitude 10° 20:05:08 10° 249° (WSW) 2,024 10.2 -36.8°
Enters shadow 20:05:40 13° 246° (WSW) 1,836 10.0 -36.8°
